Flag for Germany Weather past 2 weeks in Schleswig, Schleswig-Holstein, Germany

Now
50 °F

Drizzle. Low clouds.


Feels Like: 50 °F
Forecast: 44 / 56 °F
Wind: 2 mph from West

Location: Schleswig

Current Time: May 25, 2015 at 8:36:57 AM

Latest Report: May 25, 2015 at 8:00 AM


Visibility: 1 mi

Pressure: 29.91 "Hg

Humidity: 99%

Dew point: 50 °F

Location of SchleswigLocation

Historic Weather in Schleswig — Graph

°F

Schleswig temperature yesterday

Maximum temperature yesterday: 59 °F (at 4:00 PM)
Minimum temperature yesterday: 40 °F (at 6:00 AM)
Average temperature yesterday: 50 °F

Past Weeks' High & Low Weather Summary

 TemperatureHumidityPressure
High72 °F (May 11, 6:00 PM)99% (May 25, 7:00 AM)30.33 "Hg (May 25, 7:00 AM)
Low40 °F (May 24, 6:00 AM)45% (May 11, 4:00 PM)29.50 "Hg (May 19, 1:00 AM)
Average51 °F78%30.02 "Hg
* Reported May 10 7:00 AM — May 25 7:00 AM, Schleswig, Weather by CustomWeather, © 2015

Note: Actual official high and low records may vary slightly from our data, if they occured in-between our weather recording intervals... More about our weather records

Advertising

Schleswig weather history for previous 24 hours

 ConditionsComfort  
Time TempWeatherWind HumidityBarometerVisibility
7:00 AM
Mon, May 25
49 °FDrizzle. Low clouds.3 mph99%29.90 "Hg1 mi
6:00 AM49 °FDrizzle. Low clouds.2 mph97%29.91 "Hg1 mi
4:00 AM49 °FOvercast.2 mph89%29.93 "Hg9 mi
3:00 AM49 °FOvercast.2 mph87%29.95 "Hg9 mi
2:00 AM49 °FOvercast.2 mph86%29.97 "Hg12 mi
1:00 AM48 °FPassing clouds.2 mph88%29.98 "Hg9 mi
12:00 AM47 °FPassing clouds.2 mph89%29.99 "Hg9 mi
10:00 PM
Sun, May 24
50 °FPassing clouds.2 mph79%30.01 "Hg19 mi
9:00 PM54 °FSunny.3 mph71%30.02 "Hg22 mi
8:00 PM57 °FSunny.5 mph64%30.03 "Hg22 mi
7:00 PM59 °FSunny.5 mph56%30.04 "Hg25 mi
6:00 PM59 °FPassing clouds.3 mph55%30.05 "Hg19 mi
4:00 PM59 °FPassing clouds.6 mph56%30.08 "Hg19 mi
3:00 PM59 °FPassing clouds.3 mph58%30.09 "Hg19 mi
2:00 PM57 °FScattered clouds.3 mph61%30.11 "Hg19 mi
1:00 PM58 °FScattered clouds.3 mph64%30.12 "Hg19 mi
12:00 PM53 °FOvercast.5 mph69%30.14 "Hg19 mi
10:00 AM51 °FOvercast.3 mph71%30.15 "Hg19 mi
9:00 AM49 °FOvercast.3 mph72%30.15 "Hg19 mi
8:00 AM49 °FPartly sunny.3 mph75%30.15 "Hg19 mi
Weather by CustomWeather, © 2015

See weather overviewHow to use our weather pages